Theta_e
315 316 316 315 315 314 314 314 314 315 316 317 316 315 314 313 313 316 317 317 318 317 319 319 319 324 329 333 336 337 338 339 339 340 340 340 340 339 339 338 338 337 337 339 341 341 342 341 341 342 341 341 341 341 341 340 341 340 340 340 339 339 340 339 339 338 338 338 338 338 337 337 338 338 337 335 334 335 332 329 331 332 333 334 334 334
316 316 316 314 314 314 313 315 316 316 316 317 316 315 314 313 313 316 318 318 317 319 319 318 324 331 335 336 337 338 338 338 339 339 338 337 337 336 336 336 335 335 336 339 340 340 341 341 341 341 341 340 340 340 341 340 340 340 340 340 339 338 337 337 337 338 338 338 338 339 338 338 337 337 338 338 337 336 334 331 331 333 333 333 333 333
316 315 315 314 314 313 313 314 315 316 317 317 317 315 314 314 314 316 318 318 318 319 319 323 332 334 336 335 335 336 336 336 336 336 335 334 333 333 333 333 333 334 335 336 337 339 340 340 340 340 340 340 340 340 340 340 340 340 339 338 337 337 336 336 336 336 337 337 338 338 338 337 337 337 337 338 337 336 335 333 333 333 333 333 333 333
314 314 314 314 313 313 313 313 315 316 317 318 317 315 314 315 314 314 317 318 318 320 322 328 334 334 334 334 333 334 333 333 333 332 332 331 330 330 330 330 331 332 334 334 334 336 338 338 338 339 339 338 339 339 339 338 338 338 337 337 337 337 337 337 337 335 335 337 337 337 336 336 336 336 335 335 335 335 335 335 334 333 333 332 332 332
313 313 313 314 313 313 313 313 315 316 318 319 318 316 315 315 316 315 318 318 316 322 326 329 332 333 333 334 333 332 332 332 331 331 330 330 329 329 330 330 330 331 332 332 332 334 335 336 336 336 336 336 336 337 337 337 337 336 336 336 336 337 338 338 337 336 335 336 336 336 336 336 336 336 336 335 336 337 337 337 336 334 333 332 332 332
313 314 313 313 313 313 313 313 314 317 319 319 318 317 316 316 317 317 318 317 316 321 327 328 331 332 332 333 333 331 331 330 330 330 330 329 328 329 329 328 328 329 329 329 330 332 333 333 333 333 333 334 334 335 335 336 336 335 335 335 335 336 337 336 336 337 336 336 336 336 336 337 337 337 337 337 337 337 337 336 336 335 333 333 332 333
314 314 313 313 313 313 313 313 314 317 318 317 318 318 317 317 318 317 318 316 315 320 328 327 331 334 333 332 332 330 329 329 329 328 328 328 327 327 327 327 327 327 328 327 328 331 332 331 331 331 330 331 332 332 333 334 335 335 335 335 335 335 335 334 334 335 335 335 335 336 336 337 337 337 337 338 337 337 336 336 336 335 335 335 333 332
314 315 314 313 313 313 313 313 314 316 316 316 318 319 319 318 318 318 317 316 316 323 328 326 329 334 333 332 331 330 329 329 328 327 326 326 327 327 327 327 326 326 326 326 327 328 329 328 328 328 328 328 328 329 330 332 332 333 333 333 334 335 335 335 334 334 335 335 334 335 336 336 337 337 337 337 337 337 336 336 336 335 335 335 333 332
315 315 315 313 313 312 312 314 315 316 315 316 318 319 319 319 319 319 317 317 320 325 326 325 328 331 331 332 331 329 329 329 328 327 326 326 326 327 326 326 326 325 325 325 325 326 326 325 325 325 325 326 326 327 328 329 329 329 329 330 330 332 333 334 334 334 334 334 333 333 334 335 336 336 336 336 336 337 336 336 336 336 336 335 334 334
315 315 315 314 314 312 313 315 315 316 316 317 318 318 318 318 318 317 318 317 318 323 324 322 323 325 328 332 332 330 330 329 327 326 325 325 326 326 326 325 325 324 324 324 324 324 324 324 324 324 324 325 325 325 326 326 325 325 325 325 325 326 328 329 330 331 332 332 331 330 331 333 334 334 335 335 335 335 335 335 335 335 335 334 334 334
315 315 315 316 315 314 314 315 314 315 316 318 318 316 317 318 318 320 322 319 317 321 321 320 321 321 325 331 332 331 331 328 326 326 325 325 325 325 325 325 324 323 323 323 323 323 323 322 322 323 324 323 323 323 323 323 322 322 322 322 322 322 323 324 325 326 327 328 328 328 328 329 330 330 331 332 332 333 333 333 333 333 333 332 332 332
315 315 315 316 316 315 315 314 315 315 316 318 317 316 316 317 316 317 319 318 318 321 321 319 319 317 323 332 333 330 328 325 325 326 325 325 325 325 325 324 324 323 322 322 321 322 321 321 321 322 322 321 321 321 321 321 321 322 322 322 322 321 321 321 321 322 323 323 324 325 325 325 326 326 327 328 328 329 329 330 330 330 330 331 331 331
315 315 315 316 317 316 314 313 314 315 316 318 317 316 316 315 314 314 317 318 319 321 321 318 319 322 329 334 332 329 327 324 324 324 324 324 324 324 324 323 322 321 321 320 320 321 320 320 320 320 320 320 320 320 320 320 321 321 321 321 321 320 320 320 320 321 321 321 321 321 322 322 322 323 324 325 326 326 326 328 328 329 329 330 331 331
315 315 315 316 317 316 314 313 313 314 316 317 316 316 317 316 314 314 317 319 319 320 317 314 325 333 335 333 329 328 326 324 324 324 324 324 323 323 323 322 321 320 320 319 319 320 320 320 320 319 319 319 319 319 320 319 320 320 320 320 320 320 319 320 320 319 320 320 320 320 320 320 320 320 321 322 323 323 324 326 327 327 329 330 331 331
315 317 316 315 316 316 316 315 316 317 317 317 315 316 318 318 318 318 318 318 320 320 316 319 331 337 336 332 327 326 325 324 324 323 324 323 322 322 321 320 320 319 319 319 319 319 319 319 319 319 319 318 318 318 318 318 318 319 319 319 319 319 318 319 319 319 319 319 320 319 319 319 319 319 319 319 320 320 321 323 324 325 327 329 329 329
314 315 316 316 315 315 316 316 318 318 316 317 316 314 315 319 322 321 320 320 321 319 321 330 333 332 333 330 325 324 324 324 324 323 322 321 320 319 319 318 318 318 318 318 318 318 318 318 318 318 318 317 318 317 318 318 318 318 318 318 318 318 318 318 318 318 318 318 318 318 318 318 318 318 318 317 317 317 317 318 321 322 325 327 327 328
315 316 316 315 315 315 316 317 318 317 316 317 315 313 315 317 321 321 319 320 322 321 326 332 333 331 332 331 326 324 324 323 322 322 320 319 318 318 318 318 318 318 318 318 318 318 318 318 318 317 317 317 317 317 317 317 317 317 317 317 317 317 317 317 317 317 317 317 318 317 317 317 318 317 316 316 315 315 315 316 317 319 321 324 325 326
319 318 316 314 315 315 317 318 317 318 318 316 313 314 316 315 320 324 321 318 319 322 327 332 334 332 332 332 328 324 323 323 321 320 319 318 318 318 317 317 317 318 318 317 318 317 317 317 317 317 317 317 317 317 317 316 316 316 316 316 316 316 316 316 316 316 316 317 317 316 316 316 316 316 315 315 314 314 314 314 315 316 317 319 320 322
319 319 317 315 316 317 317 317 318 317 316 316 314 315 320 319 318 320 321 319 317 322 331 334 333 332 331 331 328 324 323 322 320 319 319 318 318 317 317 317 317 317 317 317 317 317 317 317 316 316 316 316 316 316 316 316 316 316 315 315 315 315 315 316 316 316 315 316 315 315 315 315 315 314 314 314 314 314 313 313 314 315 315 315 316 317
321 320 320 317 315 317 317 316 317 317 315 316 315 314 320 321 319 318 320 321 318 323 335 336 332 332 331 328 326 324 323 321 319 319 318 318 318 317 317 317 317 317 317 317 317 316 316 316 316 316 315 315 315 315 315 315 315 315 315 315 315 315 315 315 315 315 314 315 314 314 314 314 314 313 313 313 313 312 312 312 313 313 314 314 315 315
320 318 322 323 316 316 317 315 316 317 317 316 316 316 316 316 318 319 319 320 318 324 333 335 333 332 330 327 326 324 322 320 319 318 318 317 318 317 317 317 317 317 317 316 316 316 315 315 315 315 314 313 313 312 312 312 313 313 314 315 315 314 314 314 314 314 313 314 313 313 313 313 313 313 312 312 312 311 311 311 312 312 313 313 314 314
320 318 323 325 318 314 316 316 315 317 317 317 317 318 317 315 316 317 318 318 316 320 328 332 335 333 328 327 327 323 321 320 319 318 318 317 317 317 317 317 317 317 316 315 315 315 314 314 313 312 312 311 311 310 310 310 311 312 312 313 314 314 313 313 313 313 312 312 312 311 312 312 312 312 312 311 311 310 310 310 311 312 312 312 312 312
326 322 319 320 318 316 316 316 316 316 316 316 317 317 317 317 315 315 321 324 316 317 327 332 334 331 326 326 326 322 320 319 318 318 318 317 317 317 317 316 316 316 315 315 314 313 313 312 311 311 311 310 310 310 309 309 309 310 311 311 312 313 312 312 312 312 311 311 310 310 310 310 311 311 310 310 310 310 309 309 310 311 311 311 311 311
323 323 319 317 317 317 316 315 316 316 316 316 317 318 317 319 318 316 324 328 319 321 331 335 333 329 325 324 323 320 319 318 318 317 317 317 317 317 316 316 315 315 314 313 312 312 311 311 311 311 310 310 310 309 309 308 308 309 309 310 311 312 312 311 312 311 310 310 310 310 309 309 309 309 309 309 309 309 308 308 308 309 310 310 310 311
319 323 325 321 317 316 317 317 316 316 315 315 318 319 318 318 318 317 320 322 319 322 330 335 333 328 325 322 319 318 318 317 317 317 317 317 316 316 316 315 314 313 313 312 312 311 311 311 311 311 310 310 310 309 309 308 308 308 309 309 310 311 311 311 311 310 309 309 309 309 308 308 308 309 309 308 308 308 307 307 306 307 308 308 309 309
322 325 329 329 325 322 322 322 321 319 316 315 316 318 318 317 316 319 322 321 319 324 330 333 330 326 323 320 317 317 317 316 317 317 316 316 316 315 315 314 313 313 312 312 312 311 311 311 311 310 310 310 309 309 308 308 308 308 308 309 309 310 310 310 309 309 308 309 308 308 307 307 307 307 307 307 307 306 306 306 306 306 306 306 307 307
323 322 325 332 330 328 327 325 322 319 315 314 316 316 317 318 317 319 323 322 323 330 333 329 326 325 322 320 318 317 317 316 316 316 316 316 315 315 314 313 313 312 312 312 311 311 310 310 310 310 310 310 309 308 308 307 307 307 308 308 308 309 309 309 308 308 308 308 307 307 307 307 306 306 306 305 305 305 305 305 305 305 305 305 305 306
325 321 322 327 326 326 326 323 320 319 315 314 315 316 318 320 318 318 323 325 325 332 332 325 323 325 322 320 318 317 316 316 316 316 316 316 315 314 314 313 312 312 312 312 311 311 310 309 309 309 309 309 309 308 308 307 307 307 307 308 308 308 308 308 308 308 307 307 306 306 306 306 306 305 305 304 304 304 304 304 305 305 305 305 305 304
327 323 321 322 321 323 325 324 325 325 320 315 314 316 321 322 321 323 328 328 328 331 331 324 323 324 321 319 318 317 317 316 316 316 316 315 314 313 313 312 312 312 311 311 311 310 309 309 309 309 309 309 308 308 308 307 307 306 307 307 307 307 307 307 307 307 307 306 306 306 306 306 306 305 304 304 303 303 303 303 304 304 304 304 304 304
324 322 320 320 320 321 325 328 328 327 325 323 321 322 326 327 327 329 329 327 330 331 327 323 322 322 319 318 317 316 316 316 316 316 315 314 314 313 312 312 311 311 311 310 310 310 309 309 309 309 309 308 308 308 308 307 306 306 306 306 306 306 306 307 306 306 306 306 306 305 305 305 304 304 303 303 303 302 302 302 302 303 303 303 303 303
322 321 320 325 327 323 326 331 329 324 324 325 322 323 326 327 328 329 325 323 325 325 322 321 321 319 317 316 315 315 315 316 316 315 315 314 313 312 311 311 310 310 310 309 309 309 308 308 308 308 308 308 308 307 307 306 306 306 306 306 306 306 305 305 305 305 305 305 305 305 305 304 304 303 303 303 302 302 302 301 301 302 302 302 302 302
327 329 327 333 333 325 326 332 329 326 328 328 323 322 325 328 327 326 324 323 323 321 320 320 320 318 316 314 314 314 314 315 315 315 314 313 312 311 310 310 309 309 309 309 309 308 308 308 308 308 307 307 307 307 306 306 306 306 306 306 306 305 305 304 304 304 303 303 304 304 304 304 303 303 303 302 302 302 302 301 301 301 302 301 301 301
327 333 332 332 331 326 326 330 331 333 335 331 323 321 323 325 324 322 323 323 321 320 320 320 319 316 314 313 313 314 313 314 314 314 313 312 310 310 309 309 309 308 308 308 308 307 307 307 307 307 307 306 306 306 306 306 306 306 305 305 305 305 304 304 304 303 303 302 303 303 303 303 303 303 302 301 300 301 302 301 301 301 301 301 301 300
324 331 333 332 330 327 327 328 329 331 330 325 321 320 321 321 320 318 318 318 319 319 318 317 316 314 313 313 313 313 313 313 313 312 311 310 310 310 309 309 308 308 308 308 307 307 307 306 306 306 306 306 305 305 305 305 305 305 305 304 304 304 304 303 303 303 302 302 302 302 302 302 302 302 301 298 296 299 301 301 301 301 301 301 301 300
327 330 330 329 327 326 327 327 327 327 324 321 320 319 318 316 315 315 314 313 314 316 315 314 313 312 312 312 312 312 312 312 311 310 310 310 309 309 309 308 308 307 307 307 306 306 306 306 305 305 305 305 305 305 305 305 305 305 304 304 303 303 303 303 303 302 302 301 301 301 300 301 301 300 299 297 295 297 299 300 300 300 300 301 300 300
327 329 327 325 324 324 324 325 325 323 320 319 319 318 317 317 316 317 316 313 312 313 313 313 312 311 312 311 311 312 311 310 310 310 309 310 309 309 308 308 307 306 306 306 306 305 305 305 305 304 304 304 304 305 304 304 304 304 304 304 303 303 302 302 302 302 302 301 301 300 300 300 300 299 298 298 297 296 296 298 300 300 300 300 300 299
323 325 326 325 323 321 321 320 320 320 320 319 320 319 319 320 319 319 318 314 311 311 311 311 311 311 311 311 310 310 310 309 309 309 309 309 309 309 308 307 306 306 305 305 305 305 305 304 304 304 304 303 304 304 304 304 303 303 303 303 303 302 302 302 302 301 301 301 301 300 300 299 299 299 298 298 298 297 295 296 298 299 299 299 300 299
323 322 326 327 322 318 319 318 318 320 321 320 320 320 319 318 316 315 317 315 312 311 311 310 310 310 309 309 309 309 309 309 309 308 309 309 308 308 307 307 306 305 304 304 304 304 304 304 304 304 304 304 304 304 304 303 303 303 303 302 302 302 302 301 301 301 301 301 301 300 300 299 299 299 299 298 298 297 296 295 295 296 296 296 297 298
322 321 323 325 321 318 319 320 319 320 320 319 320 319 316 315 314 316 320 318 312 310 311 310 309 309 309 309 308 308 308 309 308 307 307 308 308 308 307 306 305 304 304 303 304 304 304 304 303 303 303 304 304 304 304 303 303 302 302 302 302 302 302 301 301 301 300 300 300 300 300 299 299 299 299 298 298 297 297 296 296 295 295 295 295 296
321 323 323 323 322 320 321 321 320 320 319 319 319 318 315 314 315 318 324 321 312 309 310 309 309 309 309 308 308 307 308 308 307 307 307 307 307 307 306 304 304 303 303 303 303 304 303 303 303 303 303 303 303 304 303 303 303 302 302 302 302 302 302 301 301 301 300 300 300 300 300 299 299 299 299 298 298 297 297 297 296 296 296 296 296 296
319 322 323 323 322 321 321 321 319 319 320 319 319 318 316 316 318 322 324 319 311 309 310 309 308 309 308 308 307 307 308 307 306 306 307 307 306 305 304 303 303 303 303 303 303 303 303 303 303 302 302 302 303 303 303 303 302 302 302 302 301 301 301 301 301 300 300 300 300 300 300 299 299 299 299 298 298 297 297 297 297 296 296 296 296 296
319 319 321 323 322 320 320 320 319 319 318 317 317 317 316 319 321 320 317 312 309 309 309 308 308 308 307 307 307 307 307 306 306 307 306 306 306 305 304 304 304 303 303 303 303 303 303 303 302 302 302 302 302 302 303 303 302 302 301 301 301 301 301 301 300 300 300 300 300 300 300 300 299 299 299 298 298 298 297 297 297 296 296 296 296 296
320 319 319 320 320 320 320 319 320 321 318 316 317 317 317 319 318 313 310 309 309 308 308 308 308 307 307 307 307 307 307 306 306 306 306 305 305 304 303 303 303 302 302 303 303 303 303 303 303 302 302 302 301 301 302 303 302 302 301 301 301 300 300 300 300 300 300 300 299 300 300 300 300 299 299 298 298 298 297 297 297 297 296 296 296 296
321 320 320 320 318 319 321 320 319 319 317 315 317 317 316 315 313 309 309 309 308 308 307 307 307 307 307 307 307 306 306 306 306 306 305 305 304 303 303 303 302 302 302 303 303 303 303 302 302 301 301 301 301 301 301 302 302 302 301 301 301 301 300 300 300 300 300 300 299 299 300 300 300 299 299 299 298 298 297 297 297 297 296 296 296 296
320 318 319 318 316 317 319 318 316 315 314 314 315 314 312 311 310 309 309 308 308 308 307 307 306 307 307 307 306 305 305 306 306 305 305 303 302 302 302 302 302 302 302 303 303 302 302 302 301 300 301 301 301 301 301 302 302 302 301 301 301 301 300 300 300 300 300 300 300 299 299 300 300 299 299 299 298 298 298 297 297 297 297 296 296 296
316 314 315 317 315 315 315 314 313 313 313 313 313 312 311 311 310 309 309 308 308 308 307 307 307 307 306 306 305 305 305 305 305 305 304 303 301 302 302 302 302 302 302 302 302 302 301 300 300 300 301 301 301 301 301 301 302 301 301 301 301 300 300 300 300 300 300 300 300 299 299 300 299 299 299 299 298 298 298 297 297 297 297 297 296 296
314 314 315 316 316 316 316 314 313 313 313 312 312 312 311 310 310 309 309 309 309 308 308 307 307 306 306 306 305 305 305 305 304 304 303 302 302 302 303 302 302 302 302 302 301 301 300 300 300 300 300 301 301 302 301 302 302 301 301 301 301 300 300 300 300 300 299 299 300 300 299 299 299 299 299 299 298 298 298 297 297 297 297 297 296 296
315 315 315 315 315 316 316 314 312 313 312 312 312 311 311 311 310 310 310 309 309 308 308 307 307 306 306 305 305 305 305 304 304 304 303 302 302 303 302 302 302 302 301 301 300 300 300 300 300 301 301 301 301 302 302 302 302 301 301 301 301 301 300 300 300 300 300 299 299 300 299 299 299 299 299 299 299 298 298 297 297 297 297 297 296 296
315 315 315 314 314 314 314 313 312 313 312 311 311 311 311 311 310 310 309 309 309 308 307 307 306 306 305 305 305 305 305 305 304 303 302 303 303 302 302 301 301 301 301 300 300 300 300 300 300 301 301 301 301 302 302 301 301 301 301 301 301 301 300 300 300 300 300 300 299 300 299 299 299 299 298 298 299 298 298 297 297 297 297 297 296 296
314 314 313 313 313 313 313 312 312 313 312 311 311 311 310 310 309 309 309 308 308 307 306 306 306 306 305 305 305 305 305 304 303 303 303 303 302 302 301 301 301 301 300 300 300 300 300 301 301 301 301 301 301 302 302 301 301 301 301 301 301 301 301 301 300 299 300 300 300 300 300 299 299 299 298 298 298 298 298 297 297 297 297 297 296 296
313 312 312 312 313 313 312 311 311 312 311 310 310 310 309 309 309 309 308 308 307 307 306 306 306 306 305 305 305 305 304 303 302 303 303 302 301 301 301 302 302 301 300 300 300 300 301 301 301 301 301 301 301 302 301 301 301 301 300 300 301 300 301 301 300 299 299 300 300 300 300 299 299 299 298 298 298 298 298 297 297 297 297 297 296 296
Wind_Speed
11 5 4 5 5 7 9 10 10 11 12 9 8 9 10 8 8 7 10 12 12 8 6 8 8 5 10 13 16 27 30 27 25 24 22 22 23 24 24 23 23 22 21 19 19 19 17 17 16 16 14 13 14 13 12 12 11 11 9 7 6 5 5 5 5 5 4 5 5 6 6 6 7 7 5 6 9 10 9 10 11 11 10 12 13 13
10 6 5 7 7 8 10 11 12 12 12 10 5 5 8 9 10 8 11 15 12 8 7 9 10 11 14 14 15 22 23 18 20 22 20 20 21 22 22 22 20 19 18 17 17 17 16 16 15 15 13 12 13 13 12 12 12 12 10 9 7 6 5 5 6 6 6 6 7 7 7 7 7 6 3 4 6 6 7 7 9 10 10 11 12 12
7 5 7 9 9 10 10 11 13 13 11 9 5 4 6 7 8 7 12 17 12 6 6 10 14 12 12 14 14 19 19 17 20 22 20 19 19 19 20 19 17 17 17 16 16 15 14 13 13 13 12 12 11 10 10 10 10 10 10 8 7 6 5 5 6 8 8 8 7 7 6 6 6 6 5 7 8 7 7 7 7 8 9 10 12 13
5 5 9 11 11 12 12 12 13 12 9 6 5 4 6 8 7 5 11 18 13 5 8 16 14 8 10 13 12 17 21 21 22 23 23 21 19 18 17 17 17 16 16 15 14 14 12 11 11 12 11 11 11 10 8 7 7 8 8 7 7 6 6 6 6 8 9 8 7 6 4 4 5 5 6 7 8 8 7 5 5 6 8 10 12 14
6 8 13 13 11 13 12 12 11 9 6 6 7 7 8 11 8 5 10 14 10 4 10 17 11 3 8 12 10 13 19 20 19 21 21 20 19 18 17 17 16 15 15 14 13 12 11 8 9 9 8 7 8 9 8 6 6 8 8 7 8 7 6 6 6 6 8 8 7 6 5 4 4 4 4 5 6 7 8 8 6 5 6 8 10 12
7 12 18 14 11 13 12 11 10 7 5 6 7 10 13 13 9 4 14 12 6 4 9 14 7 1 5 11 10 9 11 13 15 18 18 17 17 16 16 15 14 15 14 12 12 11 9 7 6 6 5 5 5 6 7 7 6 8 8 7 9 8 4 4 5 5 6 7 7 6 5 4 4 5 5 6 7 8 9 9 11 9 8 7 8 10
6 12 17 15 13 13 12 10 10 8 5 5 6 10 13 13 11 3 15 13 4 5 8 11 8 1 1 7 10 9 9 10 11 13 15 17 16 15 16 14 12 14 14 13 12 10 8 7 7 7 6 6 5 6 6 6 5 8 8 7 8 9 6 6 8 8 8 8 7 6 4 4 5 6 7 8 8 9 9 8 10 12 11 8 8 11
8 12 14 15 14 11 10 9 9 9 6 5 7 9 9 9 9 5 9 9 5 7 7 8 9 4 2 6 10 12 12 9 8 9 11 16 18 17 15 13 13 14 14 14 13 11 9 9 8 8 7 6 6 5 4 3 4 5 6 6 7 9 9 9 11 11 10 9 9 8 6 5 5 5 6 8 8 9 9 8 10 12 13 11 9 11
10 12 11 15 14 9 8 8 9 10 7 5 8 8 7 7 7 4 3 3 5 10 6 6 8 5 3 6 9 13 11 9 9 8 9 14 18 18 17 15 14 14 14 14 14 13 11 10 9 8 7 6 5 3 1 1 2 2 3 3 3 7 10 11 12 12 12 11 11 10 9 8 7 7 6 7 8 8 8 9 11 12 12 12 12 11
10 15 14 12 11 8 7 9 11 11 7 5 9 9 6 8 5 2 4 4 5 8 8 9 9 6 2 5 9 9 8 9 8 7 9 15 19 19 18 17 15 14 14 13 14 14 12 10 8 6 5 5 4 3 2 1 2 4 6 6 5 2 3 6 8 9 11 11 10 9 9 9 9 9 9 7 8 9 9 9 10 10 10 12 13 14
10 18 17 10 10 10 9 10 12 13 7 7 10 9 6 7 2 2 1 2 3 3 7 10 11 7 3 6 9 6 7 12 11 8 9 14 18 19 18 17 15 14 13 12 12 12 11 9 7 5 3 3 3 4 3 5 8 11 12 11 10 10 8 5 2 3 5 6 7 8 8 9 10 11 11 10 10 11 11 10 11 11 12 13 13 14
9 14 12 7 11 14 10 9 11 13 8 7 7 5 3 6 2 2 3 4 2 5 5 7 10 9 4 5 6 5 10 15 13 11 11 13 18 19 18 17 15 14 12 11 10 10 10 9 7 5 4 5 6 8 8 10 12 11 10 9 9 11 12 11 9 7 6 5 5 5 5 7 9 10 10 10 10 11 11 11 11 11 11 12 12 12
8 8 8 8 11 14 10 6 8 10 8 7 6 4 3 3 1 2 1 2 3 5 6 7 7 6 2 0 3 9 13 13 13 15 17 18 20 20 18 17 16 14 12 9 9 9 9 8 7 7 7 8 9 11 10 9 9 9 7 7 8 10 11 10 12 13 13 13 12 10 8 7 7 8 8 9 10 10 10 10 10 10 9 10 12 12
5 5 9 10 7 11 10 5 6 7 6 8 6 5 5 3 3 4 2 2 2 2 8 9 6 3 1 2 3 9 12 15 19 21 22 22 22 20 18 17 15 13 12 10 9 9 8 8 9 8 8 8 9 9 8 7 7 9 10 10 9 10 10 11 12 13 12 12 12 12 11 11 12 13 11 8 8 9 9 9 9 9 8 9 11 12
6 5 7 9 5 8 10 6 6 5 4 5 5 5 5 4 5 4 3 3 3 3 6 6 4 2 1 2 5 11 17 21 23 23 23 22 20 20 19 17 16 13 11 10 10 10 10 9 9 7 8 8 8 8 9 10 10 10 11 10 9 10 10 11 12 12 11 9 9 9 10 11 12 14 14 12 10 9 9 8 8 8 8 9 11 12
8 6 5 8 8 11 12 7 6 6 4 4 3 5 5 5 5 3 4 6 3 2 1 2 3 3 3 5 8 15 18 19 21 22 22 20 19 20 19 17 16 13 10 10 11 11 10 9 9 8 8 9 9 11 13 14 12 9 9 9 9 11 11 12 12 12 12 10 10 11 10 10 11 12 13 15 15 14 12 7 7 7 8 10 12 13
7 5 5 9 9 12 13 7 4 5 4 4 5 4 5 5 4 4 4 4 5 3 1 1 3 4 4 3 6 13 14 13 16 17 18 20 20 19 17 15 14 12 11 12 12 12 11 10 10 10 10 10 11 12 12 10 9 9 9 9 9 10 13 14 14 14 13 11 11 12 11 10 11 13 15 17 18 18 16 12 8 8 8 11 13 15
6 3 7 12 9 9 12 7 6 6 5 5 6 5 3 4 3 4 3 2 4 3 1 3 6 7 5 2 4 11 14 12 11 13 16 18 17 15 14 14 13 12 12 13 12 12 12 12 11 10 10 11 11 11 10 9 10 9 10 12 13 14 14 14 14 14 13 12 12 12 12 11 12 14 16 17 18 18 18 16 13 11 10 10 12 14
6 2 5 11 11 8 11 9 7 11 10 5 4 5 5 4 4 2 3 3 4 3 2 4 7 6 4 4 7 11 13 13 12 12 13 14 14 14 14 14 14 14 14 14 13 13 13 12 12 11 10 10 10 10 9 9 9 9 11 14 15 16 16 15 14 13 13 13 14 14 13 13 13 15 17 17 17 19 20 19 17 15 14 13 12 13
5 4 3 7 13 8 6 7 6 8 10 5 2 3 4 5 3 3 3 4 5 4 3 5 5 3 2 7 12 12 12 13 13 10 11 14 15 16 16 15 16 15 14 15 15 14 13 13 12 12 11 11 10 9 9 8 8 9 10 12 14 15 16 15 15 15 14 13 14 15 14 14 15 16 17 18 19 21 22 21 19 19 19 17 16 15
4 4 1 5 11 9 4 6 7 5 5 4 2 3 5 4 2 1 2 2 4 5 4 5 3 3 1 5 12 14 13 13 14 11 11 16 17 16 17 17 16 16 15 16 16 15 14 12 11 11 12 12 11 11 12 12 12 12 11 11 13 15 16 16 16 17 16 15 15 16 15 14 14 15 16 17 20 21 22 22 21 21 21 21 21 20
3 4 3 3 4 7 4 5 7 7 5 5 4 4 6 5 4 1 3 3 3 4 5 6 4 2 1 1 4 11 12 12 17 18 16 18 19 18 17 17 16 16 16 17 17 16 15 13 12 12 13 14 14 14 14 14 15 15 15 14 13 15 17 17 16 17 17 17 17 16 15 13 14 15 16 17 20 21 23 23 22 21 21 23 23 23
5 4 4 2 3 6 8 8 9 7 5 6 5 4 5 5 5 5 4 4 3 2 4 4 3 2 1 4 1 11 15 17 22 23 20 19 20 20 19 17 16 16 16 17 17 16 15 14 14 14 14 14 14 14 15 16 16 17 18 17 16 18 19 18 17 18 19 19 19 19 17 16 17 18 19 20 21 22 23 24 22 21 22 23 23 24
5 4 4 3 3 4 8 8 8 8 6 6 6 4 4 5 5 6 5 3 2 2 4 4 2 2 2 4 8 19 22 22 24 24 24 22 20 20 20 18 18 18 17 17 17 16 15 15 15 15 15 14 14 15 15 16 17 18 19 19 18 19 19 18 17 18 19 20 21 21 21 21 21 21 22 22 22 22 24 25 24 22 22 23 23 24
6 2 4 4 1 2 3 2 4 8 6 3 3 4 3 5 6 4 2 1 2 2 7 6 1 1 1 3 12 20 21 20 21 23 25 24 22 21 20 20 20 20 18 17 16 15 15 15 15 15 15 14 14 15 16 17 18 18 19 20 19 18 18 17 16 18 20 20 21 23 23 22 22 22 21 21 23 23 24 25 25 25 24 23 23 24
6 2 4 5 4 4 5 4 4 6 4 3 4 6 6 6 6 4 2 2 3 2 7 7 3 3 5 8 12 14 15 16 18 21 23 24 24 22 21 21 21 20 18 17 16 16 16 15 15 15 15 15 15 15 16 17 18 19 20 20 19 18 18 17 16 19 21 21 22 24 24 24 23 23 22 20 20 21 23 24 25 25 26 25 24 24
3 2 5 6 6 6 5 4 3 4 6 5 5 7 8 6 6 5 3 2 4 4 4 3 11 12 10 12 13 12 14 14 16 20 22 23 24 23 22 23 21 20 18 16 16 16 15 15 15 16 16 15 15 16 17 17 18 20 20 20 18 17 18 18 18 20 21 22 24 26 26 27 27 27 26 25 23 22 22 22 22 23 24 26 26 25
3 1 5 6 6 5 3 3 6 1 7 9 8 8 8 7 9 8 4 5 7 6 3 4 16 18 13 14 15 14 14 13 15 20 23 23 24 25 24 23 22 20 18 17 16 15 14 16 17 17 16 14 13 14 15 16 18 19 20 19 17 17 17 18 19 20 21 23 26 27 27 28 29 29 29 29 28 27 25 23 21 21 21 23 25 26
5 1 4 5 5 5 6 7 8 7 2 4 8 9 6 6 9 7 4 7 9 7 5 10 15 16 14 14 14 15 15 15 18 22 25 25 26 26 25 24 23 22 20 18 16 13 14 16 16 15 16 15 14 14 14 15 17 19 19 18 17 17 17 17 17 18 20 22 24 25 25 25 26 27 28 29 29 30 29 26 24 23 22 22 23 24
5 2 2 3 4 4 8 8 9 8 8 7 5 5 6 4 7 7 5 5 8 10 13 15 12 11 11 10 12 16 19 21 24 26 26 26 26 26 26 25 24 22 20 18 15 13 14 15 13 13 15 16 14 13 14 15 18 18 18 18 17 16 16 15 15 16 18 20 21 23 23 23 24 25 27 29 30 32 32 30 28 27 28 27 24 24
5 1 1 3 2 3 7 10 10 9 10 11 13 14 13 11 12 12 10 12 14 13 15 17 13 8 6 10 15 18 21 23 24 25 25 24 25 26 26 25 24 22 19 17 15 14 14 14 14 13 13 14 13 12 13 16 17 17 17 17 16 15 15 16 17 19 20 19 20 22 23 25 27 28 28 28 30 32 34 33 30 29 30 31 29 27
5 1 1 5 4 3 5 8 8 7 8 11 13 13 11 8 8 7 6 7 12 16 17 15 10 6 7 12 16 17 19 21 21 22 23 23 25 27 27 25 23 22 20 17 15 14 14 15 16 16 15 14 13 13 14 16 17 16 16 16 16 16 17 19 20 21 21 20 19 20 22 25 27 27 26 27 28 30 32 33 32 30 30 31 32 31
5 4 2 4 4 3 4 5 6 5 5 6 6 6 5 4 8 9 8 7 10 16 14 9 8 9 11 14 14 12 14 16 17 20 23 24 26 28 26 24 23 22 20 18 15 15 15 15 16 17 16 16 16 15 16 16 16 15 15 15 15 16 19 21 20 21 23 23 21 20 21 24 25 26 26 26 25 24 27 31 31 31 31 31 32 32
5 7 3 3 4 1 5 4 5 4 1 2 4 4 1 6 11 12 9 7 7 7 6 7 11 14 14 14 14 13 14 15 16 20 24 27 29 27 25 24 22 21 20 18 16 16 17 16 16 15 16 16 16 16 15 15 15 15 14 14 16 17 19 20 20 20 23 24 23 22 21 21 23 24 27 29 28 22 23 27 29 30 30 30 31 33
7 7 3 3 5 1 4 4 3 2 3 3 3 4 8 12 16 18 12 7 6 9 13 15 15 16 16 17 19 19 18 19 20 21 23 25 26 26 24 23 22 22 21 18 17 17 16 16 16 16 16 16 16 16 15 14 14 14 14 16 17 18 19 19 19 19 20 23 25 24 24 23 24 25 27 33 35 29 23 24 27 28 28 28 29 32
6 7 4 3 3 3 3 3 2 3 2 1 3 5 8 8 9 12 12 8 5 9 15 16 13 15 19 22 23 23 23 24 23 21 22 22 22 22 22 22 22 22 20 18 17 17 17 17 17 17 15 16 17 16 15 14 14 14 15 16 17 18 19 20 20 19 19 21 25 26 26 27 28 28 28 32 38 37 29 25 25 26 26 26 28 30
5 5 5 4 3 3 4 2 2 0 1 2 3 3 4 3 1 3 6 5 4 7 13 16 12 14 20 23 25 27 28 25 18 15 19 22 21 22 23 23 22 20 20 19 17 18 18 17 17 17 16 16 16 16 15 14 14 14 16 17 17 17 18 19 20 19 18 20 25 26 25 25 27 28 29 31 36 38 34 28 25 24 23 23 24 27
7 3 5 5 2 3 5 3 1 1 3 5 5 4 3 9 9 7 5 4 5 10 17 17 13 15 20 24 27 29 26 18 8 8 18 22 22 23 23 20 18 19 21 20 18 18 18 17 16 16 16 15 15 15 15 14 14 15 17 18 18 17 17 17 18 18 17 18 22 24 23 24 26 26 27 30 33 36 36 34 31 29 28 27 25 25
10 5 4 6 3 3 5 3 3 2 2 5 7 3 7 15 13 8 4 1 7 16 22 21 17 20 23 26 29 27 19 10 5 8 20 25 22 21 19 17 18 20 20 20 18 18 17 16 16 16 15 15 15 14 14 14 15 16 17 18 17 16 16 17 18 18 18 18 19 21 23 25 26 26 26 29 31 34 36 37 35 35 35 35 34 33
7 4 3 6 4 3 4 3 2 1 3 5 6 6 12 14 10 6 1 4 10 21 26 25 23 24 26 28 28 19 9 8 11 17 24 25 20 18 19 19 20 20 19 19 18 17 17 16 15 15 14 14 14 14 14 14 15 16 17 16 16 17 17 17 17 16 17 18 17 18 22 24 24 24 25 28 30 32 35 36 36 36 37 38 38 37
1 2 2 5 4 4 4 3 1 1 3 3 7 11 14 11 6 3 3 7 18 27 26 27 28 27 28 30 24 12 6 13 22 26 26 24 22 21 20 20 20 18 18 18 17 17 17 16 15 15 13 13 14 14 14 14 15 16 17 16 16 16 16 15 15 14 15 18 18 17 20 23 22 22 25 27 28 31 33 35 36 36 36 37 38 38
1 1 2 3 3 3 3 2 2 1 3 2 7 10 11 7 1 2 5 16 29 31 26 27 28 27 30 29 20 13 16 23 29 29 26 24 24 23 21 21 21 19 18 17 17 17 17 16 16 15 13 12 13 14 15 15 15 16 17 17 16 15 14 14 15 15 15 18 19 17 17 20 21 22 25 27 27 29 32 33 34 35 35 36 37 38
2 2 2 2 2 2 3 3 3 2 4 6 7 5 3 3 5 9 17 23 29 31 28 27 27 28 30 25 17 20 28 31 30 29 26 24 25 24 22 21 21 20 20 19 18 17 16 16 15 15 14 12 12 13 15 15 15 16 16 16 15 14 14 14 15 15 16 17 18 17 15 15 19 22 25 26 27 29 30 32 33 33 34 35 37 38
1 2 2 1 1 2 3 3 2 1 5 10 8 4 5 9 16 24 28 26 26 29 29 27 28 29 27 23 23 30 35 34 31 28 26 25 26 25 21 20 22 22 21 20 18 16 15 15 15 15 14 13 12 13 15 16 16 15 14 14 12 11 12 14 14 14 15 15 16 17 14 12 15 21 24 25 27 28 30 31 32 33 33 35 36 38
2 2 6 4 0 2 4 3 3 9 13 13 13 16 19 21 23 28 30 29 28 29 28 29 30 28 26 27 32 35 34 32 30 28 26 26 26 25 23 22 22 21 20 20 19 17 16 16 15 15 15 14 12 12 14 15 15 14 14 13 12 10 11 13 13 13 14 14 15 16 14 11 13 19 23 25 26 28 29 30 32 33 34 35 36 37
2 6 10 6 3 5 8 8 10 16 19 20 22 25 26 25 24 26 28 29 28 28 29 30 30 29 31 34 36 34 32 32 31 29 26 25 26 25 23 20 17 18 20 21 19 17 16 16 16 15 15 15 13 12 13 14 13 13 12 12 11 11 10 12 13 13 13 13 14 15 14 13 14 18 21 23 24 25 27 29 30 32 34 35 35 36
2 6 7 4 4 5 4 5 10 15 19 22 24 25 26 26 26 26 27 27 27 28 29 31 31 32 34 35 35 34 34 34 32 29 27 26 26 24 21 19 19 20 21 19 17 16 16 16 16 15 15 15 14 13 13 12 11 10 9 9 10 11 10 10 12 14 14 13 13 13 14 14 15 17 19 21 21 22 25 27 29 30 33 34 34 35
3 7 8 4 3 5 4 7 15 21 22 23 24 24 25 26 25 25 26 27 27 28 30 31 32 33 34 34 35 36 35 32 29 29 30 28 25 22 21 22 23 22 20 19 18 17 16 15 15 14 14 14 14 14 13 11 9 9 9 9 9 9 9 10 11 12 13 13 13 12 13 14 13 15 18 19 20 21 23 25 27 28 30 32 33 34
7 8 6 4 6 6 6 11 17 19 16 17 21 23 23 25 26 27 27 28 28 29 30 30 30 30 32 33 34 35 33 29 27 30 31 28 25 23 23 23 22 21 21 21 19 17 16 15 15 15 14 14 14 14 14 12 10 11 11 10 9 7 7 8 8 8 10 12 12 12 13 14 12 13 16 18 18 20 21 23 25 25 27 29 30 31
7 6 5 7 8 4 3 10 14 10 8 13 20 24 24 26 28 28 27 27 27 28 29 30 29 28 30 32 33 33 30 28 28 30 29 26 25 26 25 23 21 21 21 20 19 18 17 16 15 15 14 14 14 14 13 11 9 8 8 8 9 9 8 8 9 7 7 9 11 11 12 13 11 12 15 16 17 17 18 21 23 22 23 26 28 30
6 9 9 7 6 6 11 16 15 11 12 17 24 27 28 28 28 27 27 28 28 29 30 30 29 30 30 30 29 29 29 30 30 29 27 26 27 26 24 22 20 20 19 18 17 17 17 15 15 15 14 13 14 14 13 11 8 7 7 8 9 10 9 8 10 9 7 7 9 10 10 10 9 11 15 15 14 14 16 19 20 19 20 23 26 28
Wind_Direction
188 183 200 193 198 204 215 230 236 238 240 226 181 188 211 221 246 218 172 184 180 167 193 167 143 109 79 73 83 94 100 105 106 103 100 102 100 99 102 103 103 101 102 111 117 118 124 127 125 129 137 143 142 141 142 138 134 134 137 144 148 153 170 185 189 186 194 218 232 235 241 241 237 240 225 207 201 205 234 264 268 264 259 261 262 258
184 193 214 202 210 215 216 229 240 244 250 253 230 208 219 214 235 223 168 182 180 146 180 163 110 81 76 80 85 89 91 93 99 100 96 97 95 96 98 99 103 102 106 120 121 121 127 125 124 127 136 146 141 138 144 142 138 142 147 148 145 146 173 199 213 215 212 222 233 241 250 251 244 246 267 267 235 216 223 239 254 256 250 260 267 261
196 211 206 203 213 223 227 227 234 245 247 257 266 253 247 227 232 229 173 176 178 147 163 128 96 86 86 85 82 86 92 88 92 96 95 94 90 90 94 97 104 105 109 116 117 122 128 127 129 128 134 142 140 141 146 145 144 149 155 157 152 149 160 174 198 213 220 225 231 243 252 259 260 261 270 277 277 270 245 223 231 242 246 255 262 261
200 214 203 208 212 218 232 229 229 242 244 248 244 239 262 246 229 217 171 169 174 165 133 112 98 101 96 89 84 85 93 93 89 90 91 92 89 88 93 98 104 106 107 108 108 116 121 129 132 130 137 138 141 151 149 157 167 164 167 165 156 156 161 174 192 205 212 213 222 241 246 252 260 261 259 258 272 285 282 263 222 217 237 246 252 258
196 195 199 213 216 214 226 231 228 230 237 247 233 228 254 253 239 179 156 164 164 135 118 113 96 94 109 103 103 97 99 100 96 93 91 92 92 94 98 97 99 102 105 107 107 110 114 122 121 124 142 139 140 147 145 168 179 170 176 169 165 168 153 164 194 207 209 208 209 221 225 234 244 249 259 256 261 277 287 289 271 234 236 248 255 257
210 188 192 210 220 216 221 230 229 212 220 251 237 231 242 254 269 168 154 156 144 126 129 122 101 28 120 113 122 124 111 109 108 105 99 97 96 95 94 91 92 98 102 103 104 108 108 105 105 113 128 132 139 140 139 156 159 164 181 172 171 189 182 175 210 229 225 220 215 215 219 231 245 249 253 258 264 267 270 280 285 281 271 265 265 259
225 196 186 200 214 215 218 228 230 210 204 247 241 236 240 252 291 252 162 156 144 163 153 137 129 156 160 125 132 128 111 113 113 107 107 106 101 96 95 94 94 97 99 98 101 109 109 101 99 98 99 106 115 118 127 150 164 174 188 185 180 198 214 209 225 242 242 234 223 216 221 234 250 258 255 256 263 270 272 275 282 288 287 275 257 253
214 212 189 192 207 214 215 220 227 213 200 240 248 247 247 248 279 275 169 160 144 147 158 145 128 129 188 162 146 130 117 118 112 103 109 111 108 105 104 102 100 98 96 94 94 99 100 90 82 80 78 78 82 90 106 150 178 180 186 194 195 202 210 214 226 237 240 235 224 215 217 224 237 254 258 257 257 263 269 270 273 280 285 284 268 253
196 218 198 185 200 214 210 212 219 217 209 234 255 256 255 247 252 255 206 202 135 132 164 163 122 114 188 174 148 133 127 132 130 124 122 119 117 114 111 108 104 100 97 94 92 91 89 81 75 69 61 55 48 51 64 159 179 172 160 164 198 209 214 221 226 230 229 229 226 220 223 228 231 239 246 251 253 254 259 265 269 274 285 298 299 282
193 215 210 186 195 209 204 209 215 222 213 206 246 262 264 253 244 195 206 215 134 136 181 188 154 133 161 170 155 144 146 150 143 138 133 128 126 120 117 114 109 105 100 96 95 94 90 84 76 63 53 43 26 17 357 359 55 61 64 49 16 346 227 221 224 227 226 227 230 228 234 241 243 248 251 253 253 254 260 265 269 278 288 299 306 305
205 208 217 203 191 193 200 211 215 225 205 170 226 257 279 272 266 85 166 137 118 176 199 192 176 153 141 178 176 164 155 152 144 142 139 130 128 127 124 122 117 111 103 98 99 99 96 87 76 67 47 30 25 18 28 60 60 55 56 50 36 32 30 21 342 261 248 246 246 243 249 257 261 264 265 268 268 265 267 269 275 282 289 297 303 307
222 200 214 218 197 188 194 212 214 224 210 173 212 226 264 292 338 36 6 77 141 247 222 182 167 153 152 198 192 136 125 140 142 142 142 135 134 134 130 126 121 113 108 106 104 101 98 91 81 72 49 43 50 44 54 74 73 65 67 64 52 45 38 34 31 17 8 358 327 296 281 275 280 284 284 288 287 280 277 278 279 278 282 294 303 308
238 204 198 211 210 193 188 204 208 222 210 188 209 172 164 271 230 214 279 135 208 238 204 171 138 140 169 289 149 127 123 133 134 133 138 137 136 134 129 124 118 111 108 106 105 102 98 91 81 71 64 66 68 63 64 75 78 76 71 56 47 43 38 38 37 32 33 30 22 16 7 355 340 326 310 297 295 295 293 291 290 286 289 300 309 315
243 245 205 200 209 197 197 193 190 212 190 183 202 161 153 178 179 211 214 161 239 215 186 173 116 100 277 7 94 120 117 122 123 127 132 132 132 132 127 120 113 107 103 98 99 97 91 88 89 85 78 77 79 74 67 65 73 75 63 51 48 43 36 42 45 38 40 39 30 26 23 23 20 11 359 335 311 302 297 299 301 296 296 304 310 314
205 246 214 192 180 187 208 202 166 169 160 186 193 147 170 188 161 189 172 153 233 224 183 168 103 84 170 63 90 107 111 117 122 125 126 125 126 123 118 113 109 102 98 97 96 93 92 93 96 95 84 76 73 70 60 56 62 67 59 47 44 42 35 45 49 37 34 35 23 15 16 24 27 17 6 357 344 326 310 301 298 292 284 288 299 302
201 226 212 194 187 183 200 206 161 148 167 214 196 151 201 211 145 159 177 150 159 169 122 79 64 72 88 84 100 108 110 116 119 120 117 112 110 109 106 105 106 103 102 106 106 103 103 95 85 85 84 75 67 66 64 62 60 55 50 43 43 47 43 44 42 28 25 27 19 15 20 28 26 12 1 359 357 354 349 328 296 285 276 278 289 292
190 226 218 201 209 196 188 195 180 165 170 199 210 203 217 210 142 145 191 144 101 100 93 87 106 104 94 81 109 115 112 114 116 112 106 101 100 101 102 105 110 116 122 119 115 112 108 99 88 83 81 76 69 66 64 62 55 42 38 39 43 52 53 48 36 24 22 24 20 20 23 27 21 11 8 7 3 359 358 357 336 309 284 274 277 281
164 219 222 190 198 198 174 186 246 230 202 177 198 212 210 226 199 129 149 147 114 125 154 149 143 146 149 142 142 133 126 127 121 109 103 102 102 103 108 117 124 130 132 123 115 111 108 102 95 86 81 78 73 68 64 61 56 46 42 43 46 49 51 46 33 23 23 21 15 11 9 12 15 13 12 10 4 358 358 1 357 345 328 308 293 287
157 167 240 184 177 187 168 179 242 248 236 211 187 193 170 195 228 169 142 162 159 154 109 127 147 162 173 157 155 151 143 137 127 118 118 118 122 127 132 140 141 139 134 124 118 113 106 100 96 92 87 82 78 72 69 70 68 62 58 56 54 52 47 40 29 21 21 18 12 11 14 19 24 20 13 8 3 1 3 5 3 360 353 343 331 319
158 138 285 190 171 175 173 178 208 236 241 246 275 236 186 160 171 168 169 165 161 164 126 132 163 207 207 161 162 164 153 139 133 131 132 131 137 143 145 149 147 142 135 124 118 113 107 104 101 97 89 80 74 66 64 70 68 64 71 74 68 61 53 41 27 19 20 17 11 16 25 31 32 23 15 11 9 9 10 11 11 9 4 1 356 348
143 128 256 213 171 168 186 196 187 187 213 228 246 231 210 181 135 131 229 188 150 151 137 137 179 243 235 162 166 163 150 140 138 134 131 134 140 144 143 144 143 140 133 124 117 112 109 107 102 99 93 83 73 62 60 68 66 58 66 80 76 67 59 45 29 20 19 15 13 22 33 37 31 21 15 14 15 15 12 11 14 13 10 11 9 3
142 140 185 240 183 175 184 180 175 174 188 196 195 201 196 178 146 140 272 256 165 148 146 145 164 212 298 345 171 153 141 139 137 133 134 139 141 140 139 139 139 134 126 119 115 110 106 101 96 96 94 87 79 68 61 63 65 58 57 68 76 69 59 47 30 19 17 17 20 28 32 32 25 18 16 19 21 18 10 9 16 17 16 18 17 13
137 125 162 222 229 190 183 179 176 185 210 218 226 216 179 172 167 167 210 239 212 133 107 110 118 137 335 331 140 139 132 133 134 132 132 134 135 136 136 135 133 127 119 114 112 110 107 104 100 94 89 86 84 77 67 60 59 58 56 60 69 67 58 47 30 18 20 24 24 25 25 25 24 22 22 25 25 18 10 12 19 22 22 24 23 22
151 122 145 195 262 190 178 181 175 183 212 237 250 241 177 180 180 165 172 200 214 146 106 86 89 140 318 343 112 123 122 124 129 131 130 129 133 136 136 133 128 122 118 115 113 111 110 109 105 98 90 85 82 79 74 66 60 59 55 55 64 67 59 50 33 20 23 28 25 24 25 26 27 28 27 25 23 18 14 17 22 24 26 29 29 28
182 149 119 139 174 162 172 198 189 192 205 222 250 270 237 188 169 165 194 235 266 187 126 118 128 154 37 71 109 117 118 121 128 133 133 133 136 138 135 131 125 120 117 114 113 111 108 105 103 100 96 89 84 79 75 70 64 62 58 53 58 65 60 50 35 24 28 33 28 25 26 26 25 28 28 24 23 21 19 21 24 23 24 27 32 33
170 151 115 135 162 177 186 207 204 189 196 221 229 242 246 214 180 162 148 183 230 149 110 121 140 107 104 115 116 118 122 124 129 133 133 133 136 137 133 127 123 120 118 114 112 108 105 104 105 104 98 89 83 78 74 71 66 64 62 54 51 59 59 49 37 33 35 35 29 25 27 26 24 25 26 25 25 25 25 27 27 26 22 21 24 28
129 137 136 135 155 178 184 212 227 168 175 204 224 236 245 239 218 187 143 185 186 115 59 138 143 134 136 138 133 132 131 130 136 138 136 135 137 136 133 128 123 121 120 117 112 108 107 109 108 103 97 92 85 77 71 69 65 64 63 56 50 55 56 47 40 39 37 33 31 30 30 28 26 25 24 25 29 32 33 34 32 29 25 20 18 17
66 83 163 144 147 154 111 18 344 315 192 196 201 224 238 227 224 219 176 160 153 111 13 186 144 137 148 150 142 142 138 137 143 142 139 139 138 134 132 128 125 123 122 118 114 111 110 111 106 97 93 94 85 70 64 66 65 64 63 56 49 53 57 51 47 43 37 35 36 35 34 33 29 25 22 23 27 30 34 37 36 33 30 26 21 16
87 120 183 166 160 130 80 42 8 1 324 203 198 218 241 209 198 198 165 163 162 142 160 175 152 138 146 148 141 141 142 142 142 139 138 136 135 134 132 130 126 124 121 117 114 114 113 110 103 94 91 88 76 62 58 64 66 64 63 56 48 52 59 57 53 50 44 43 43 39 37 36 29 24 24 23 24 25 28 33 35 35 34 31 27 22
102 150 171 151 169 130 86 62 38 39 41 37 41 22 12 65 119 106 81 98 111 116 132 141 132 120 129 135 131 134 137 136 134 133 134 136 138 137 134 129 125 122 120 118 118 119 113 101 91 90 94 91 80 67 62 66 67 64 63 58 50 52 60 58 54 53 50 48 48 42 38 35 29 27 29 27 25 24 25 27 31 32 31 30 30 27
100 200 188 104 91 78 83 71 60 73 79 59 36 25 29 51 75 87 95 93 89 97 113 116 110 103 117 123 124 129 132 131 131 134 139 143 142 136 130 125 124 123 122 122 123 119 104 88 83 92 100 95 86 75 69 72 70 66 65 62 54 52 56 55 52 51 50 50 52 48 41 35 31 31 33 31 27 26 25 25 29 31 28 27 28 27
101 36 2 77 71 30 66 84 84 81 76 61 35 16 17 37 59 76 91 101 115 122 119 119 126 140 144 132 127 129 133 134 135 139 143 144 138 131 127 126 126 125 123 124 126 114 93 86 91 95 92 85 80 76 75 77 75 69 68 67 60 54 55 55 51 46 45 48 53 53 48 41 35 33 33 32 30 29 27 25 28 31 28 25 26 25
112 96 51 84 95 5 17 79 92 65 45 37 12 347 346 48 77 71 47 53 111 129 134 148 160 148 143 141 135 135 140 139 140 142 141 137 133 130 129 129 127 126 126 127 125 107 92 96 102 98 91 84 80 79 78 79 78 73 70 70 65 59 57 56 51 42 40 44 50 52 51 49 44 37 31 28 28 31 32 29 29 30 28 24 23 22
90 102 93 91 104 341 327 13 51 58 78 285 299 302 100 103 95 84 62 47 74 102 112 123 132 136 141 145 143 144 146 141 138 138 134 131 130 130 129 129 129 129 130 130 121 103 98 104 102 97 97 93 86 83 82 82 81 77 73 70 65 63 61 58 53 45 40 42 47 49 50 51 47 39 33 29 29 32 36 36 34 32 29 24 20 19
92 98 75 62 105 125 337 22 82 173 227 266 326 38 88 103 100 93 80 55 67 99 106 109 125 137 140 141 141 140 140 136 132 131 131 131 130 128 127 129 130 128 128 128 117 103 101 106 102 96 99 98 93 89 84 84 86 82 77 71 64 61 62 60 55 48 41 41 43 44 46 46 42 39 37 34 32 32 36 40 41 37 32 26 18 16
111 116 90 63 99 105 36 44 131 202 267 52 78 83 96 102 96 89 76 54 66 107 114 117 128 135 135 138 139 136 133 129 123 124 132 136 134 133 131 130 130 127 125 126 120 108 103 104 102 97 95 97 98 92 83 83 85 84 82 78 69 61 58 58 57 52 47 44 40 39 42 44 40 38 37 33 31 31 35 40 41 40 37 31 22 18
73 110 112 96 81 103 107 63 50 95 231 174 163 165 138 127 142 114 90 86 110 121 123 128 135 139 138 136 133 132 130 124 114 117 134 141 143 140 134 129 129 127 123 121 116 108 104 103 101 97 91 91 95 94 89 85 81 83 86 84 77 67 60 59 58 54 51 44 37 36 41 44 42 38 34 31 29 31 35 39 39 37 36 33 27 22
41 59 122 116 81 99 112 98 102 176 218 202 211 237 129 118 128 128 101 100 136 141 140 139 140 142 138 133 133 134 130 125 119 129 140 144 146 141 133 129 131 129 121 118 113 108 106 104 103 102 95 91 90 92 94 90 82 83 85 83 79 72 62 58 56 53 51 45 37 37 42 46 45 41 36 32 29 29 34 39 40 39 38 37 34 28
39 26 87 105 110 128 116 121 168 205 250 207 209 217 125 126 125 108 81 122 158 151 148 144 142 145 143 140 142 141 137 139 157 147 142 144 146 145 140 135 129 124 120 119 117 115 112 107 105 106 103 98 94 91 92 90 84 82 81 80 81 74 62 58 57 54 50 44 38 39 44 48 48 43 37 33 30 30 33 37 38 38 39 39 37 35
31 352 58 107 122 132 114 116 158 233 261 206 180 159 146 140 119 92 100 219 165 154 153 150 148 150 149 148 149 150 154 160 154 149 146 144 142 144 140 133 127 125 124 122 118 115 114 111 109 107 106 106 104 98 94 90 85 81 79 78 80 77 70 63 59 56 50 43 40 42 44 45 46 42 34 31 32 31 32 34 35 34 34 34 33 32
42 327 66 106 108 99 104 116 137 254 255 175 154 164 160 139 102 97 226 189 153 150 154 153 152 154 154 153 154 154 153 148 145 146 144 139 138 140 136 132 131 130 128 126 122 121 119 114 110 105 102 106 108 105 99 91 86 83 80 76 76 77 76 66 57 59 57 47 42 44 42 39 40 38 33 32 32 31 31 33 33 32 31 30 29 28
140 343 31 86 108 106 101 104 98 330 285 182 162 174 161 136 142 233 158 145 145 147 153 156 156 157 156 155 155 152 146 145 144 142 139 140 145 145 139 138 139 136 133 130 126 125 122 117 114 108 99 97 101 104 102 94 87 82 78 75 73 75 78 72 62 61 64 55 47 43 40 37 37 36 33 32 31 28 29 30 30 30 29 27 25 24
153 126 79 81 119 107 76 93 120 197 224 175 152 165 166 164 176 139 122 130 142 146 151 156 156 156 157 158 159 154 148 146 145 143 143 146 147 145 144 148 149 143 137 132 127 127 126 122 119 113 103 96 92 96 100 97 88 82 77 73 71 73 75 75 71 67 64 59 51 43 35 34 35 33 30 29 27 25 25 26 26 26 26 24 22 21
255 162 161 212 222 129 127 183 215 189 169 166 157 136 120 135 143 137 130 133 144 149 152 155 155 157 160 160 155 149 147 147 149 150 148 147 147 148 148 149 148 141 136 134 133 132 129 123 119 114 109 101 90 88 95 96 89 86 82 71 67 72 69 65 71 71 61 54 51 46 39 34 34 31 28 26 24 23 24 24 22 22 22 21 19 19
293 136 120 114 157 118 122 163 131 88 98 122 128 119 119 127 138 141 138 139 147 153 156 155 155 157 159 155 149 146 147 150 153 154 148 143 145 148 143 138 137 134 134 137 137 133 129 124 118 113 108 103 94 86 91 95 92 90 89 75 68 78 72 56 59 73 69 58 51 45 41 38 33 29 27 24 21 23 25 24 22 21 20 19 18 16
157 114 98 99 117 89 71 81 96 92 92 104 115 120 125 131 136 140 139 141 148 155 158 157 156 155 153 150 147 146 148 151 152 152 148 143 143 143 138 137 139 137 138 141 139 135 132 126 119 114 109 106 100 90 87 93 94 96 98 88 78 83 77 54 50 65 72 65 54 47 43 38 32 28 27 24 22 25 27 24 21 19 18 17 17 16
179 109 90 102 136 108 76 81 98 100 103 108 113 120 127 131 135 139 140 142 147 152 155 155 155 153 153 151 149 149 150 151 151 151 151 148 145 141 138 140 143 142 142 141 136 132 129 123 119 118 114 113 112 102 92 91 91 95 107 108 101 97 91 74 61 57 57 60 60 54 45 36 28 25 25 26 25 26 28 25 20 18 16 15 15 15
155 111 98 87 80 91 112 116 106 106 112 117 119 124 128 132 136 139 138 140 142 143 147 153 155 154 154 153 150 149 149 151 152 151 151 149 145 142 140 139 138 138 140 138 135 132 128 124 122 119 114 116 117 112 104 96 83 78 85 99 109 106 98 92 82 67 59 59 60 55 43 34 28 23 24 29 30 28 28 25 20 17 16 14 14 14
118 117 107 104 104 94 104 120 115 110 114 123 127 130 132 133 134 134 135 139 140 138 141 147 151 152 152 152 150 148 149 152 152 149 148 147 147 146 143 139 136 138 139 137 135 132 128 126 123 118 114 115 116 113 109 100 88 81 80 80 80 74 68 67 70 78 75 62 58 59 47 37 34 31 28 31 30 28 27 25 21 19 17 14 13 14
98 121 104 110 129 139 147 146 138 124 124 134 133 133 135 134 133 133 135 139 141 142 143 144 145 148 150 150 150 150 150 151 150 148 148 149 149 147 143 139 140 141 141 140 138 133 128 125 122 120 117 116 116 113 107 100 98 99 100 96 82 67 49 32 35 66 83 60 57 62 43 30 35 36 29 27 28 28 28 25 22 20 18 15 15 14
96 153 154 136 151 177 165 153 141 125 125 132 132 132 136 138 138 137 138 141 145 147 147 146 147 149 150 151 154 154 150 148 149 151 151 149 147 146 143 143 144 144 143 144 141 133 128 125 124 121 118 119 122 118 110 104 99 90 95 108 101 82 62 33 26 43 61 54 54 52 34 26 28 19 17 26 33 29 26 25 24 22 17 15 16 14